Location: Góry Miechowskie
(50.3599°N, 20.1803°E)
Time: 13:38:36
(UTC+00:00)

MSX - Pass Details

Date: 15 June 2024
Orbit: 894 x 905 km, 99.0° (Epoch: 15 July)

Event Time Altitude Azimuth Distance (km) Brightness Sun altitude
Rises 01:19:32 0° 12° (NNE) 3,522 8.3 -8.3°
Reaches altitude 10° 01:21:59 10° 8° (N) 2,578 7.3 -8.1°
Maximum altitude 01:27:32 53° 293° (WNW) 1,092 4.2 -7.5°
Drops below altitude 10° 01:33:04 10° 218° (SW) 2,565 5.5 -7.0°
Enters shadow 01:33:27 - 217° (SW) 2,712 5.6 -6.9°
